Back to catalog

STARLINK-34391

AliveCommunicationsVLEO
NORAD 64298·PAYLOAD·🇺🇸 United States

Launched Jun 8, 2025 from Vandenberg Space Force Base

Loading…

Next Passes (next 24 hours)

TLE

FreshSource: CelesTrak SupGP

Epoch: Sep 14, 2026, 14:54 UTC

1 64298C 25123H   26257.62131944 -.00035376  00000+0 -12304-2 0  2578
2 64298  70.0002  76.3916 0003815 267.9496  10.3124 15.29599380    15

Track STARLINK-34391 in real time with AllMySat

Download on the App Store